This demonstration page uses our WeatherBlox Daily Observations layout. Learn more.

36.17497, -115.13722

Hourly Observations for March 18, 2018

Temp ( °F °C ) Dew Point ( °F °C ) Humidity (%) Winds ( mph kmh ) Pressure ( in mb ) Visibility ( mi km ) Precip ( " mm )
12:53 am 00:53 Cloudy 50 10 25 -3.9 38 38 NNW 13 20 29.92 1013 10 16.0934 0 0
1:53 am 01:53 Cloudy 50 10 25 -3.9 38 38 NE 10 17 29.94 1014 10 16.0934 0 0
2:53 am 02:53 Cloudy 49 9.4 27 -2.8 43 43 SE 8 13 29.94 1014 10 16.0934 0 0
3:53 am 03:53 Cloudy 49 9.4 25 -3.9 39 39 N 3 6 29.95 1014 10 16.0934 0 0
4:53 am 04:53 Partly Cloudy 47 8.3 25 -3.9 42 42 NNW 12 19 29.98 1015 10 16.0934 0 0
5:53 am 05:53 Mostly Cloudy 47 8.3 25 -3.9 42 42 WNW 7 11 30.01 1016 10 16.0934 0 0
6:53 am 06:53 Sunny 46 7.8 25 -3.9 44 44 N 7 11 30.04 1017 10 16.0934 0 0
7:53 am 07:53 Sunny 48 8.9 24 -4.4 39 39 N 15 24 30.06 1018 10 16.0934 0 0
8:53 am 08:53 Sunny 51 10.6 21 -6.1 31 31 NNW 16 26 30.08 1019 10 16.0934 0 0
9:53 am 09:53 Sunny 53 11.7 19 -7.2 26 26 NNW 16 26 30.1 1019 10 16.0934 0 0
10:53 am 10:53 Sunny 56 13.3 16 -8.9 21 21 N 18 30 30.11 1020 10 16.0934 0 0
11:53 am 11:53 Sunny 58 14.4 7 -13.9 13 13 NNW 17 28 30.11 1020 10 16.0934 0 0
12:53 pm 12:53 Sunny 59 15 -2 -18.9 8 8 N 16 26 30.11 1020 10 16.0934 0 0
1:53 pm 13:53 Sunny 60 15.6 1 -17.2 9 9 N 18 30 30.11 1020 10 16.0934 0 0
2:53 pm 14:53 Sunny 61 16.1 2 -16.7 9 9 N 17 28 30.09 1019 10 16.0934 0 0
3:53 pm 15:53 Sunny 61 16.1 -6 -21.1 6 6 NW 16 26 30.09 1019 10 16.0934 0 0
4:53 pm 16:53 Sunny 61 16.1 -2 -18.9 7 7 NNW 13 20 30.11 1020 10 16.0934 0 0
5:53 pm 17:53 Sunny 60 15.6 0 -17.8 9 9 N 9 15 30.1 1019 10 16.0934 0 0
6:53 pm 18:53 Clear 58 14.4 1 -17.2 10 10 NNW 3 6 30.11 1020 10 16.0934 0 0
7:53 pm 19:53 Clear 57 13.9 3 -16.1 11 11 NNW 5 7 30.13 1020 10 16.0934 0 0
8:53 pm 20:53 Clear 56 13.3 13 -10.6 18 18 S 5 7 30.14 1021 10 16.0934 0 0
9:53 pm 21:53 Clear 56 13.3 14 -10 19 19 W 3 6 30.16 1021 10 16.0934 0 0
10:53 pm 22:53 Clear 53 11.7 14 -10 21 21 Calm 30.15 1021 10 16.0934 0 0
11:53 pm 23:53 Clear 52 11.1 17 -8.3 25 25 N 5 7 30.15 1021 10 16.0934 0 0

Powered by AerisWeather